Santa Ynez, CA

4:36 PM PDT on June 22, 2017 (GMT -0700)
Santa Ynez

Weather History for KIZA - October, 2013

Change the Weather History Date:

Wednesday, October 2, 2013

  Actual Average (KSBA) Record (KSBA)
Temperature  
Mean Temperature 60 °F -  
Max Temperature 75 °F 73 °F 94 °F (2014)
Min Temperature 46 °F 53 °F 42 °F (1950)
Degree Days  
Heating Degree Days 4    
Growing Degree Days 10 (Base 50)    
Moisture  
Dew Point 49 °F    
Average Humidity 77    
Maximum Humidity 100    
Minimum Humidity 43    
Precipitation  
Precipitation 0.00 in - - ()
Sea Level Pressure  
Sea Level Pressure 29.94 in    
Wind  
Wind Speed 3 mph (West)    
Max Wind Speed 15 mph    
Max Gust Speed 18 mph    
Visibility 6 miles    
Events Fog    
Averages and records for this station are not official NWS values.
T = Trace of Precipitation, MM = Missing Value Source: NWS Daily Summary

Daily Weather History Graph

Daily Weather History Graph

Search for Another Location

Airport or City:

Trip Planner

Search our weather history database for the weather conditions in past years. The results will help you decide how hot, cold, wet, or windy it might be!

Date:

Astronomy

Oct. 02, 2013 Rise Set
Actual Time 6:55 AM PDT 6:42 PM PDT
Civil Twilight 6:30 AM PDT 7:07 PM PDT
Nautical Twilight 6:01 AM PDT 7:36 PM PDT
Astronomical Twilight 5:32 AM PDT 8:06 PM PDT
Moon 4:38 AM PDT (10/2) 5:17 PM PDT (10/2)
Length of Visible Light 12h 36m
Length of Day
11h 46m
Waning Crescent, 6% of the Moon is Illuminated
Oct 2
Waning Crescent
Oct 4
New
Oct 11
First Quarter
Oct 18
Full
Oct 26
Last Quarter

Hourly Weather History & Observations

Time (PDT) Temp. Dew Point Humidity Pressure Visibility Wind Dir Wind Speed Gust Speed Precip Events Conditions
12:15 AM 51.8 °F 46.4 °F 82% 29.93 in 7.0 mi Calm Calm - N/A   Clear
12:35 AM 50.0 °F 46.4 °F 87% 29.93 in 7.0 mi Calm Calm - N/A   Clear
12:55 AM 50.0 °F 46.4 °F 87% 29.92 in 7.0 mi Calm Calm - N/A   Clear
1:15 AM 50.0 °F 46.4 °F 87% 29.93 in 7.0 mi Calm Calm - N/A   Clear
1:35 AM 50.0 °F 46.4 °F 87% 29.93 in 7.0 mi Calm Calm - N/A   Clear
1:55 AM 50.0 °F 46.4 °F 87% 29.93 in 5.0 mi Calm Calm - N/A   Clear
2:15 AM 50.0 °F 46.4 °F 87% 29.93 in 5.0 mi Calm Calm - N/A   Scattered Clouds
2:35 AM 50.0 °F 48.2 °F 94% 29.93 in 1.0 mi WSW 3.5 mph - N/A   Overcast
2:55 AM 50.0 °F 48.2 °F 94% 29.92 in 0.2 mi Calm Calm - N/A Fog Fog
3:15 AM 48.2 °F 46.4 °F 93% 29.93 in 0.2 mi Calm Calm - N/A Fog Fog
3:35 AM 48.2 °F 46.4 °F 93% 29.93 in 0.5 mi Calm Calm - N/A Fog Fog
3:55 AM 48.2 °F 46.4 °F 93% 29.93 in 0.8 mi Calm Calm - N/A   Overcast
4:15 AM 48.2 °F 46.4 °F 93% 29.94 in 0.5 mi Calm Calm - N/A Fog Fog
4:35 AM 48.2 °F 46.4 °F 93% 29.94 in 0.5 mi Calm Calm - N/A Fog Fog
4:55 AM 48.2 °F 46.4 °F 93% 29.94 in 0.8 mi Calm Calm - N/A   Overcast
5:15 AM 48.2 °F 46.4 °F 93% 29.94 in 0.2 mi Calm Calm - N/A Fog Fog
5:35 AM 48.2 °F 46.4 °F 93% 29.94 in 0.2 mi Calm Calm - N/A Fog Fog
5:55 AM 46.4 °F 46.4 °F 100% 29.94 in 0.2 mi Calm Calm - N/A Fog Fog
6:15 AM 48.2 °F 46.4 °F 93% 29.94 in 0.2 mi Calm Calm - N/A Fog Fog
6:35 AM 48.2 °F 46.4 °F 93% 29.95 in 0.2 mi Calm Calm - N/A Fog Fog
6:55 AM 48.2 °F 46.4 °F 93% 29.95 in 0.5 mi Calm Calm - N/A Fog Fog
7:15 AM 48.2 °F 48.2 °F 100% 29.96 in 0.2 mi Calm Calm - N/A Fog Fog
7:35 AM 50.0 °F 48.2 °F 94% 29.97 in 0.2 mi Calm Calm - N/A Fog Fog
7:55 AM 50.0 °F 48.2 °F 94% 29.98 in 0.2 mi Calm Calm - N/A Fog Fog
8:15 AM 50.0 °F 48.2 °F 94% 29.99 in 0.2 mi Calm Calm - N/A Fog Fog
8:35 AM 50.0 °F 48.2 °F 94% 29.99 in 0.2 mi Calm Calm - N/A Fog Fog
8:55 AM 50.0 °F 50.0 °F 100% 29.99 in 0.5 mi Calm Calm - N/A Fog Fog
9:15 AM 50.0 °F 50.0 °F 100% 29.99 in 2.5 mi Calm Calm - N/A   Overcast
9:35 AM 51.8 °F 50.0 °F 94% 29.99 in 7.0 mi Calm Calm - N/A   Mostly Cloudy
9:55 AM 53.6 °F 51.8 °F 94% 29.98 in 10.0 mi Calm Calm - N/A   Scattered Clouds
10:15 AM 55.4 °F 53.6 °F 94% 29.98 in 10.0 mi Calm Calm - N/A   Clear
10:35 AM 59.0 °F 53.6 °F 82% 29.98 in 10.0 mi Calm Calm - N/A   Clear
10:55 AM 62.6 °F 51.8 °F 68% 29.98 in 10.0 mi WSW 4.6 mph - N/A   Clear
11:15 AM 66.2 °F 51.8 °F 60% 29.97 in 10.0 mi WNW 6.9 mph - N/A   Clear
11:35 AM 69.8 °F 50.0 °F 49% 29.97 in 10.0 mi WNW 6.9 mph - N/A   Clear
11:55 AM 69.8 °F 51.8 °F 53% 29.96 in 10.0 mi WNW 6.9 mph - N/A   Clear
12:15 PM 71.6 °F 51.8 °F 50% 29.96 in 10.0 mi West 5.8 mph - N/A   Clear
12:35 PM 73.4 °F 51.8 °F 47% 29.95 in 10.0 mi West 6.9 mph - N/A   Clear
12:55 PM 73.4 °F 51.8 °F 47% 29.94 in 10.0 mi WNW 9.2 mph - N/A   Clear
1:15 PM 75.2 °F 51.8 °F 44% 29.93 in 10.0 mi West 10.4 mph - N/A   Clear
1:35 PM 75.2 °F 53.6 °F 47% 29.92 in 10.0 mi West 12.7 mph 17.3 mph N/A   Clear
1:55 PM 75.2 °F 53.6 °F 47% 29.91 in 10.0 mi WNW 10.4 mph - N/A   Clear
2:15 PM 73.4 °F 53.6 °F 50% 29.91 in 10.0 mi West 13.8 mph - N/A   Clear
2:35 PM 75.2 °F 53.6 °F 47% 29.91 in 10.0 mi West 15.0 mph 18.4 mph N/A   Clear
2:55 PM 73.4 °F 51.8 °F 47% 29.90 in 10.0 mi West 12.7 mph - N/A   Clear
3:15 PM 73.4 °F 51.8 °F 47% 29.90 in 10.0 mi West 13.8 mph - N/A   Clear
3:35 PM 73.4 °F 51.8 °F 47% 29.90 in 10.0 mi West 15.0 mph 18.4 mph N/A   Clear
3:55 PM 73.4 °F 50.0 °F 44% 29.90 in 10.0 mi WNW 13.8 mph - N/A   Clear
4:15 PM 71.6 °F 50.0 °F 46% 29.89 in 10.0 mi West 15.0 mph - N/A   Clear
4:35 PM 71.6 °F 50.0 °F 46% 29.89 in 10.0 mi West 15.0 mph - N/A   Clear
4:55 PM 71.6 °F 48.2 °F 43% 29.89 in 10.0 mi West 15.0 mph - N/A   Clear
5:15 PM 69.8 °F 50.0 °F 49% 29.89 in 10.0 mi WNW 11.5 mph - N/A   Clear
5:35 PM 68.0 °F 50.0 °F 52% 29.90 in 10.0 mi WNW 12.7 mph - N/A   Clear
5:55 PM 66.2 °F 50.0 °F 56% 29.90 in 10.0 mi WNW 10.4 mph - N/A   Clear
6:15 PM 64.4 °F 50.0 °F 59% 29.91 in 10.0 mi West 11.5 mph - N/A   Clear
6:35 PM 62.6 °F 50.0 °F 63% 29.92 in 10.0 mi West 11.5 mph - N/A   Clear
6:55 PM 60.8 °F 50.0 °F 68% 29.92 in 10.0 mi West 10.4 mph - N/A   Clear
7:15 PM 59.0 °F 50.0 °F 72% 29.93 in 10.0 mi WNW 8.1 mph - N/A   Clear
7:35 PM 55.4 °F 50.0 °F 82% 29.94 in 7.0 mi WNW 5.8 mph - N/A   Clear
7:55 PM 55.4 °F 50.0 °F 82% 29.94 in 7.0 mi West 4.6 mph - N/A   Clear
8:15 PM 53.6 °F 50.0 °F 88% 29.95 in 7.0 mi West 3.5 mph - N/A   Clear
8:35 PM 53.6 °F 50.0 °F 88% 29.95 in 7.0 mi West 3.5 mph - N/A   Clear
8:55 PM 53.6 °F 50.0 °F 88% 29.96 in 7.0 mi West 3.5 mph - N/A   Clear
9:15 PM 51.8 °F 50.0 °F 94% 29.96 in 7.0 mi WSW 3.5 mph - N/A   Clear
9:35 PM 51.8 °F 48.2 °F 88% 29.96 in 7.0 mi Calm Calm - N/A   Clear
9:55 PM 51.8 °F 48.2 °F 88% 29.96 in 7.0 mi Calm Calm - N/A   Clear
10:15 PM 51.8 °F 48.2 °F 88% 29.96 in 7.0 mi Calm Calm - N/A   Clear
10:35 PM 51.8 °F 50.0 °F 94% 29.96 in 7.0 mi Calm Calm - N/A   Clear
10:55 PM 50.0 °F 46.4 °F 87% 29.97 in 7.0 mi Calm Calm - N/A   Clear
11:15 PM 50.0 °F 46.4 °F 87% 29.96 in 5.0 mi Calm Calm - N/A   Clear
11:35 PM 50.0 °F 46.4 °F 87% 29.97 in 5.0 mi Calm Calm - N/A   Clear
11:55 PM 48.2 °F 46.4 °F 93% 29.96 in 5.0 mi Calm Calm - N/A   Clear